When you browse on this site, cookies collect data to enhance your experience and personalize the content and advertising you see.
Visit our Privacy Policy to learn more. By continuing to use the site, you agree to this use of cookies and data.
  • In Österreich
  • Länderverzeichnis
  • Für 7 Tage
  • Wassertemperatur
  • Wetterkarte
  • News
  • Widgets
  • user-avatar
    Anmelden

    Stündliche Wetter Charlottetown

    Heute, 3 Juni, Mittwoch

    Zeit Temperatur Niederschläge Wind Luftdruck Luftfeuchtigkeit
    00:00 +5°C° 0 mm 6 m/S 752 mmHg 87%
    01:00 +5°C° 0 mm 6 m/S 751 mmHg 87%
    02:00 +4°C° 0 mm 6 m/S 751 mmHg 91%
    03:00 +5°C° 0 mm 5 m/S 751 mmHg 89%
    04:00 +3°C° 0 mm 5 m/S 751 mmHg 87%
    05:00 +3°C° 0 mm 5 m/S 752 mmHg 85%
    06:00 +5°C° 0 mm 5 m/S 752 mmHg 78%
    07:00 +7°C° 0 mm 5 m/S 751 mmHg 71%
    08:00 +8°C° 0 mm 6 m/S 751 mmHg 64%
    09:00 +9°C° 0.1 mm 7 m/S 751 mmHg 68%
    10:00 +9°C° 0.1 mm 8 m/S 751 mmHg 72%
    11:00 +8°C° 0.1 mm 9 m/S 751 mmHg 77%
    12:00 +7°C° 0.5 mm 8 m/S 751 mmHg 82%
    13:00 +6°C° 0.5 mm 7 m/S 750 mmHg 88%
    14:00 +6°C° 0.5 mm 7 m/S 750 mmHg 93%
    15:00 +8°C° 0 mm 6 m/S 750 mmHg 91%
    16:00 +9°C° 0 mm 6 m/S 750 mmHg 90%
    17:00 +10°C° 0 mm 5 m/S 750 mmHg 88%
    18:00 +10°C° 0 mm 5 m/S 750 mmHg 89%
    19:00 +9°C° 0 mm 5 m/S 750 mmHg 91%
    20:00 +10°C° 0 mm 4 m/S 750 mmHg 92%
    21:00 +9°C° 0 mm 5 m/S 750 mmHg 94%
    22:00 +8°C° 0 mm 5 m/S 750 mmHg 95%
    23:00 +8°C° 0 mm 5 m/S 750 mmHg 96%

    Morgen, 4 Juni, Donnerstag

    Zeit Temperatur Niederschläge Wind Luftdruck Luftfeuchtigkeit
    00:00 +8°C° 0 mm 4 m/S 750 mmHg 97%
    01:00 +8°C° 0 mm 4 m/S 750 mmHg 97%
    02:00 +8°C° 0 mm 4 m/S 750 mmHg 97%
    03:00 +10°C° 0 mm 4 m/S 750 mmHg 97%
    04:00 +10°C° 0 mm 3 m/S 750 mmHg 98%
    05:00 +10°C° 0 mm 3 m/S 750 mmHg 98%
    06:00 +10°C° 0.2 mm 3 m/S 750 mmHg 97%
    07:00 +10°C° 0.2 mm 3 m/S 751 mmHg 97%
    08:00 +11°C° 0.2 mm 4 m/S 751 mmHg 96%
    09:00 +13°C° 0 mm 4 m/S 752 mmHg 88%
    10:00 +15°C° 0 mm 4 m/S 752 mmHg 80%
    11:00 +17°C° 0 mm 3 m/S 752 mmHg 72%
    12:00 +18°C° 0 mm 3 m/S 752 mmHg 68%
    13:00 +19°C° 0 mm 3 m/S 752 mmHg 63%
    14:00 +20°C° 0 mm 3 m/S 752 mmHg 58%
    15:00 +19°C° 0 mm 3 m/S 752 mmHg 60%
    16:00 +19°C° 0 mm 4 m/S 753 mmHg 61%
    17:00 +19°C° 0 mm 4 m/S 753 mmHg 63%
    18:00 +18°C° 0 mm 4 m/S 753 mmHg 65%
    19:00 +17°C° 0 mm 4 m/S 754 mmHg 67%
    20:00 +14°C° 0 mm 5 m/S 754 mmHg 68%
    21:00 +14°C° 0 mm 5 m/S 755 mmHg 73%
    22:00 +13°C° 0 mm 5 m/S 755 mmHg 77%
    23:00 +11°C° 0 mm 6 m/S 756 mmHg 82%

    übermorgen, 5 Juni, Freitag

    Zeit Temperatur Niederschläge Wind Luftdruck Luftfeuchtigkeit
    00:00 +11°C° 0 mm 6 m/S 756 mmHg 84%
    01:00 +10°C° 0 mm 6 m/S 756 mmHg 86%
    02:00 +10°C° 0 mm 6 m/S 756 mmHg 87%
    03:00 +10°C° 0 mm 5 m/S 756 mmHg 87%
    04:00 +10°C° 0 mm 5 m/S 756 mmHg 86%
    05:00 +9°C° 0 mm 5 m/S 757 mmHg 86%
    06:00 +12°C° 0 mm 5 m/S 757 mmHg 82%
    07:00 +13°C° 0 mm 5 m/S 757 mmHg 78%
    08:00 +15°C° 0 mm 5 m/S 758 mmHg 74%
    09:00 +16°C° 0 mm 5 m/S 757 mmHg 73%
    10:00 +17°C° 0 mm 5 m/S 757 mmHg 71%
    11:00 +19°C° 0 mm 5 m/S 757 mmHg 69%
    12:00 +20°C° 0 mm 5 m/S 757 mmHg 66%
    13:00 +21°C° 0 mm 5 m/S 757 mmHg 63%
    14:00 +22°C° 0 mm 5 m/S 757 mmHg 59%
    15:00 +21°C° 0 mm 5 m/S 757 mmHg 62%
    16:00 +21°C° 0 mm 5 m/S 757 mmHg 64%
    17:00 +21°C° 0 mm 5 m/S 756 mmHg 67%
    18:00 +19°C° 0 mm 5 m/S 757 mmHg 71%
    19:00 +17°C° 0 mm 5 m/S 757 mmHg 76%
    20:00 +15°C° 0 mm 5 m/S 757 mmHg 81%
    21:00 +15°C° 0 mm 5 m/S 757 mmHg 85%
    22:00 +15°C° 0 mm 5 m/S 756 mmHg 90%
    23:00 +14°C° 0 mm 5 m/S 756 mmHg 95%

    6 Juni, Samstag

    Zeit Temperatur Niederschläge Wind Luftdruck Luftfeuchtigkeit
    00:00 +14°C° 0 mm 5 m/S 756 mmHg 96%
    01:00 +14°C° 0 mm 5 m/S 756 mmHg 96%
    02:00 +14°C° 0 mm 5 m/S 755 mmHg 97%
    03:00 +13°C° 0 mm 6 m/S 755 mmHg 97%
    04:00 +13°C° 0 mm 6 m/S 754 mmHg 97%
    05:00 +13°C° 0 mm 6 m/S 754 mmHg 97%
    06:00 +14°C° 0.4 mm 6 m/S 753 mmHg 96%
    07:00 +15°C° 0.4 mm 7 m/S 753 mmHg 96%
    08:00 +16°C° 0.4 mm 7 m/S 753 mmHg 95%
    09:00 +16°C° 0.4 mm 7 m/S 752 mmHg 94%
    10:00 +17°C° 0.4 mm 7 m/S 752 mmHg 93%
    11:00 +17°C° 0.4 mm 7 m/S 752 mmHg 93%
    12:00 +17°C° 0.2 mm 7 m/S 751 mmHg 92%
    13:00 +18°C° 0.2 mm 7 m/S 751 mmHg 90%
    14:00 +18°C° 0.2 mm 7 m/S 750 mmHg 89%
    15:00 +18°C° 0.2 mm 7 m/S 750 mmHg 90%
    16:00 +18°C° 0.2 mm 7 m/S 750 mmHg 91%
    17:00 +17°C° 0.2 mm 6 m/S 750 mmHg 92%
    18:00 +17°C° 0.1 mm 6 m/S 750 mmHg 92%
    19:00 +16°C° 0.1 mm 6 m/S 751 mmHg 93%
    20:00 +16°C° 0.1 mm 5 m/S 751 mmHg 93%
    21:00 +14°C° 0.6 mm 5 m/S 751 mmHg 95%
    22:00 +13°C° 0.6 mm 4 m/S 751 mmHg 96%
    23:00 +12°C° 0.6 mm 4 m/S 752 mmHg 98%

    7 Juni, Sonntag

    Zeit Temperatur Niederschläge Wind Luftdruck Luftfeuchtigkeit
    00:00 +11°C° 0.3 mm 4 m/S 751 mmHg 98%
    01:00 +10°C° 0.3 mm 4 m/S 751 mmHg 98%
    02:00 +9°C° 0.3 mm 5 m/S 751 mmHg 98%
    03:00 +8°C° 0.4 mm 6 m/S 751 mmHg 97%
    04:00 +7°C° 0.4 mm 6 m/S 751 mmHg 97%
    05:00 +6°C° 0.4 mm 7 m/S 751 mmHg 97%
    06:00 +6°C° 0.1 mm 7 m/S 751 mmHg 97%
    07:00 +7°C° 0.1 mm 6 m/S 751 mmHg 97%
    08:00 +7°C° 0.1 mm 6 m/S 751 mmHg 97%
    09:00 +6°C° 0.1 mm 7 m/S 751 mmHg 95%
    10:00 +5°C° 0.1 mm 7 m/S 751 mmHg 93%
    11:00 +5°C° 0.1 mm 7 m/S 751 mmHg 91%
    12:00 +5°C° 0.1 mm 7 m/S 751 mmHg 89%
    13:00 +5°C° 0.1 mm 7 m/S 751 mmHg 87%
    14:00 +5°C° 0.1 mm 7 m/S 751 mmHg 85%
    15:00 +5°C° 0.3 mm 7 m/S 751 mmHg 83%
    16:00 +5°C° 0.3 mm 7 m/S 751 mmHg 81%
    17:00 +5°C° 0.3 mm 7 m/S 751 mmHg 79%
    18:00 +5°C° 0 mm 7 m/S 751 mmHg 78%
    19:00 +5°C° 0 mm 6 m/S 752 mmHg 77%
    20:00 +6°C° 0 mm 5 m/S 752 mmHg 75%
    21:00 +5°C° 0 mm 6 m/S 752 mmHg 75%
    22:00 +5°C° 0 mm 6 m/S 752 mmHg 75%
    23:00 +5°C° 0 mm 6 m/S 752 mmHg 75%

    8 Juni, Montag

    Zeit Temperatur Niederschläge Wind Luftdruck Luftfeuchtigkeit
    00:00 +5°C° 0 mm 6 m/S 752 mmHg 76%
    01:00 +5°C° 0 mm 7 m/S 752 mmHg 77%
    02:00 +5°C° 0 mm 7 m/S 752 mmHg 78%
    03:00 +4°C° 0 mm 7 m/S 752 mmHg 79%
    04:00 +4°C° 0 mm 7 m/S 753 mmHg 79%
    05:00 +4°C° 0 mm 7 m/S 753 mmHg 80%
    06:00 +5°C° 0 mm 7 m/S 753 mmHg 76%
    07:00 +6°C° 0 mm 7 m/S 754 mmHg 72%
    08:00 +7°C° 0 mm 8 m/S 754 mmHg 68%
    09:00 +7°C° 0 mm 8 m/S 755 mmHg 66%
    10:00 +9°C° 0 mm 8 m/S 755 mmHg 65%
    11:00 +9°C° 0 mm 8 m/S 755 mmHg 63%
    12:00 +10°C° 0 mm 8 m/S 755 mmHg 62%
    13:00 +10°C° 0 mm 7 m/S 755 mmHg 61%
    14:00 +10°C° 0 mm 7 m/S 755 mmHg 60%
    15:00 +10°C° 0 mm 6 m/S 755 mmHg 59%
    16:00 +10°C° 0 mm 6 m/S 755 mmHg 59%
    17:00 +10°C° 0 mm 5 m/S 756 mmHg 59%
    18:00 +8°C° 0 mm 4 m/S 756 mmHg 65%
    19:00 +8°C° 0 mm 3 m/S 756 mmHg 70%
    20:00 +6°C° 0 mm 2 m/S 756 mmHg 75%
    21:00 +6°C° 0 mm 2 m/S 756 mmHg 75%
    22:00 +5°C° 0 mm 2 m/S 756 mmHg 76%
    23:00 +5°C° 0 mm 2 m/S 756 mmHg 76%
    Mehr zeigen